Tracking 29493 objects as of 9-Sep-2024
HD Live streaming from Space Station
objects crossing your sky now

FENGYUN 1C DEB

Track FENGYUN 1C DEB now!
10-day predictions


NORAD ID: 31878
Int'l Code: 1999-025CKD
Perigee: 585.5 km
Apogee: 738.0 km
Inclination: 99.5 °
Period: 97.8 minutes
Semi major axis: 7032 km
RCS: 0.0122 m2 (small)
Launch date: May 10, 1999
Source: People's Republic of China (PRC)
Launch site: Taiyaun Space Center, China (TSC)

Note: This is SATELLITE DEBRIS
Your satellite tracking list
Your tracking list is empty




NASA's NSSDC Master Catalog

Two Line Element Set (TLE):
1 31878U 99025CKD 24243.80969966  .00012787  00000-0  18632-2 0  9997
2 31878  99.4835  79.2363 0108437 251.8481 107.0890 14.72029929911606
Source of the keplerian elements: AFSPC